TimeAKDT,TemperatureF,Dew PointF,Humidity,Sea Level PressureIn,VisibilityMPH,Wind Direction,Wind SpeedMPH,Gust SpeedMPH,PrecipitationIn,Events,Conditions,WindDirDegrees,DateUTC
12:16 AM,55.4,51.8,88,30.08,4.0,Calm,Calm,-,N/A,,Overcast,0,2013-09-13 08:16:00
12:36 AM,53.6,51.8,94,30.08,0.8,NW,3.5,-,N/A,,Overcast,320,2013-09-13 08:36:00
12:56 AM,53.6,51.8,94,30.08,1.5,NW,3.5,-,N/A,,Overcast,310,2013-09-13 08:56:00
1:16 AM,53.6,51.8,94,30.08,0.8,NNW,3.5,-,N/A,,Overcast,330,2013-09-13 09:16:00
1:36 AM,55.4,51.8,88,30.08,0.8,WSW,4.6,-,N/A,,Overcast,250,2013-09-13 09:36:00
1:56 AM,53.6,50.0,88,30.08,0.5,NNW,4.6,-,N/A,,Overcast,340,2013-09-13 09:56:00
2:16 AM,53.6,51.8,94,30.09,2.5,West,3.5,-,N/A,,Overcast,260,2013-09-13 10:16:00
2:36 AM,53.6,51.8,94,30.09,10.0,WNW,4.6,-,N/A,,Overcast,290,2013-09-13 10:36:00
2:56 AM,55.4,51.8,88,30.09,10.0,WSW,3.5,-,N/A,,Overcast,240,2013-09-13 10:56:00
3:16 AM,55.4,51.8,88,30.09,10.0,SW,8.1,-,N/A,,Overcast,230,2013-09-13 11:16:00
3:36 AM,55.4,51.8,88,30.09,10.0,WSW,4.6,-,N/A,,Overcast,240,2013-09-13 11:36:00
3:56 AM,55.4,51.8,88,30.09,6.0,Calm,Calm,-,N/A,,Overcast,0,2013-09-13 11:56:00
4:16 AM,55.4,51.8,88,30.10,8.0,WSW,3.5,-,N/A,,Overcast,240,2013-09-13 12:16:00
4:36 AM,53.6,48.2,82,30.10,10.0,Calm,Calm,-,N/A,,Overcast,0,2013-09-13 12:36:00
4:56 AM,55.4,50.0,82,30.10,10.0,SW,6.9,-,N/A,,Overcast,230,2013-09-13 12:56:00
5:16 AM,55.4,50.0,82,30.09,10.0,WSW,8.1,-,N/A,,Overcast,240,2013-09-13 13:16:00
5:36 AM,55.4,50.0,82,30.10,10.0,WSW,5.8,-,N/A,,Overcast,250,2013-09-13 13:36:00
5:56 AM,53.6,50.0,88,30.10,10.0,Calm,Calm,-,N/A,,Overcast,0,2013-09-13 13:56:00
6:16 AM,53.6,50.0,88,30.10,10.0,Calm,Calm,-,N/A,,Overcast,0,2013-09-13 14:16:00
6:36 AM,53.6,50.0,88,30.10,10.0,Calm,Calm,-,N/A,,Overcast,0,2013-09-13 14:36:00
6:56 AM,53.6,50.0,88,30.10,10.0,Calm,Calm,-,N/A,,Overcast,0,2013-09-13 14:56:00
7:16 AM,53.6,50.0,88,30.10,10.0,NNW,3.5,-,N/A,,Overcast,330,2013-09-13 15:16:00
7:36 AM,53.6,50.0,88,30.10,10.0,NW,4.6,-,N/A,,Overcast,320,2013-09-13 15:36:00
7:56 AM,55.4,51.8,88,30.10,10.0,NW,8.1,-,N/A,,Overcast,310,2013-09-13 15:56:00
8:16 AM,53.6,48.2,82,30.10,10.0,WNW,5.8,-,N/A,,Overcast,300,2013-09-13 16:16:00
8:36 AM,53.6,48.2,82,30.10,10.0,NW,6.9,-,N/A,,Overcast,310,2013-09-13 16:36:00
8:56 AM,53.6,48.2,82,30.11,10.0,NW,4.6,-,N/A,,Overcast,320,2013-09-13 16:56:00
9:16 AM,53.6,48.2,82,30.11,10.0,WNW,6.9,-,N/A,,Overcast,300,2013-09-13 17:16:00
9:36 AM,53.6,48.2,82,30.11,10.0,WNW,6.9,-,N/A,,Overcast,300,2013-09-13 17:36:00
9:56 AM,53.6,48.2,82,30.11,10.0,WNW,5.8,-,N/A,,Overcast,290,2013-09-13 17:56:00
10:16 AM,53.6,48.2,82,30.11,10.0,NW,3.5,-,N/A,,Overcast,310,2013-09-13 18:16:00
10:36 AM,53.6,48.2,82,30.10,10.0,NNW,4.6,-,N/A,,Overcast,340,2013-09-13 18:36:00
10:56 AM,55.4,50.0,82,30.10,10.0,NNW,5.8,-,N/A,,Overcast,340,2013-09-13 18:56:00
11:16 AM,55.4,50.0,82,30.09,10.0,NNW,4.6,-,N/A,,Overcast,340,2013-09-13 19:16:00
11:36 AM,55.4,50.0,82,30.09,10.0,NW,5.8,-,N/A,,Overcast,320,2013-09-13 19:36:00
11:56 AM,55.4,50.0,82,30.09,10.0,NW,5.8,-,N/A,,Overcast,320,2013-09-13 19:56:00
12:16 PM,57.2,50.0,77,30.08,10.0,West,4.6,-,N/A,,Overcast,280,2013-09-13 20:16:00
12:36 PM,57.2,50.0,77,30.07,10.0,West,4.6,-,N/A,,Overcast,280,2013-09-13 20:36:00
12:56 PM,57.2,50.0,77,30.07,10.0,West,4.6,-,N/A,,Overcast,280,2013-09-13 20:56:00
1:16 PM,57.2,50.0,77,30.07,10.0,West,8.1,-,N/A,,Overcast,270,2013-09-13 21:16:00
1:36 PM,57.2,50.0,77,30.08,10.0,West,8.1,-,N/A,,Mostly Cloudy,270,2013-09-13 21:36:00
1:56 PM,57.2,50.0,77,30.08,10.0,West,4.6,-,N/A,,Mostly Cloudy,260,2013-09-13 21:56:00
2:16 PM,59.0,50.0,72,30.07,10.0,NNW,4.6,-,N/A,,Mostly Cloudy,330,2013-09-13 22:16:00
2:36 PM,60.8,51.8,72,30.07,10.0,NNW,5.8,-,N/A,,Mostly Cloudy,330,2013-09-13 22:36:00
2:56 PM,60.8,51.8,72,30.06,10.0,NW,5.8,-,N/A,,Mostly Cloudy,320,2013-09-13 22:56:00
3:16 PM,60.8,51.8,72,30.05,10.0,NW,5.8,-,N/A,,Mostly Cloudy,320,2013-09-13 23:16:00
3:36 PM,62.6,51.8,68,30.05,10.0,NW,5.8,-,N/A,,Mostly Cloudy,310,2013-09-13 23:36:00
3:56 PM,62.6,50.0,63,30.05,10.0,NW,5.8,-,N/A,,Partly Cloudy,310,2013-09-13 23:56:00
4:16 PM,62.6,51.8,68,30.04,10.0,WNW,6.9,-,N/A,,Partly Cloudy,300,2013-09-14 00:16:00
4:36 PM,62.6,51.8,68,30.04,10.0,WNW,6.9,-,N/A,,Partly Cloudy,300,2013-09-14 00:36:00
4:56 PM,60.8,50.0,68,30.03,10.0,NW,8.1,-,N/A,,Partly Cloudy,310,2013-09-14 00:56:00
5:16 PM,60.8,50.0,68,30.02,10.0,WNW,9.2,-,N/A,,Partly Cloudy,300,2013-09-14 01:16:00
5:36 PM,60.8,50.0,68,30.02,10.0,NW,8.1,-,N/A,,Partly Cloudy,310,2013-09-14 01:36:00
5:56 PM,57.2,48.2,72,30.01,10.0,WNW,6.9,-,N/A,,Clear,300,2013-09-14 01:56:00
6:16 PM,57.2,50.0,77,30.01,10.0,NW,6.9,-,N/A,,Clear,310,2013-09-14 02:16:00
6:36 PM,57.2,48.2,72,30.00,10.0,NW,4.6,-,N/A,,Clear,310,2013-09-14 02:36:00
6:56 PM,57.2,48.2,72,29.99,10.0,NW,4.6,-,N/A,,Clear,310,2013-09-14 02:56:00
7:16 PM,55.4,48.2,77,29.99,10.0,Calm,Calm,-,N/A,,Clear,0,2013-09-14 03:16:00
7:36 PM,55.4,48.2,77,29.99,10.0,Calm,Calm,-,N/A,,Clear,0,2013-09-14 03:36:00
7:56 PM,55.4,48.2,77,29.99,10.0,Calm,Calm,-,N/A,,Clear,0,2013-09-14 03:56:00
8:16 PM,55.4,48.2,77,29.99,10.0,Calm,Calm,-,N/A,,Clear,0,2013-09-14 04:16:00
8:36 PM,53.6,46.4,77,29.99,10.0,Calm,Calm,-,N/A,,Clear,0,2013-09-14 04:36:00
8:56 PM,53.6,46.4,77,29.99,10.0,Calm,Calm,-,N/A,,Clear,0,2013-09-14 04:56:00
9:16 PM,53.6,46.4,77,29.99,10.0,Calm,Calm,-,N/A,,Clear,0,2013-09-14 05:16:00
9:36 PM,53.6,46.4,77,29.99,10.0,West,4.6,-,N/A,,Clear,280,2013-09-14 05:36:00
9:56 PM,53.6,46.4,77,29.98,10.0,Calm,Calm,-,N/A,,Clear,0,2013-09-14 05:56:00
10:16 PM,53.6,46.4,77,29.98,10.0,NW,4.6,-,N/A,,Clear,320,2013-09-14 06:16:00
10:36 PM,53.6,46.4,77,29.98,10.0,WNW,4.6,-,N/A,,Clear,290,2013-09-14 06:36:00
10:56 PM,51.8,46.4,82,29.97,10.0,NW,3.5,-,N/A,,Clear,320,2013-09-14 06:56:00
11:16 PM,51.8,46.4,82,29.96,10.0,West,4.6,-,N/A,,Clear,280,2013-09-14 07:16:00
11:36 PM,51.8,46.4,82,29.96,10.0,West,5.8,-,N/A,,Clear,270,2013-09-14 07:36:00
11:56 PM,51.8,46.4,82,29.96,10.0,Calm,Calm,-,N/A,,Clear,0,2013-09-14 07:56:00